Flight Information

DEPARTURE
BOZEMAN, MT
Elevation:
4473
Runways:
3/21 - 2650x75 - ASPH-G
11G/29G - 2802x80 - TURF-G
11/29 - 5050x75 - ASPH-G
12/30 - 8994x150 - ASPH-G
Tower:
118.2
DESTINATION
,
Elevation:
TPA:
1000 (est.)


6274.3 NM75° True-16° Var58° HDG

Flight Plan:
(click to file on line)

1. Type
2. Aircraft Identification
3. Aircraft Type / Special Equipment
4. True Airspeed
kts
5. Departure Airport
(ICAO code)
6. Arriving Airport
(ICAO code)
7. Cruising Altitude
ft
8. Alternate Airport
(ICAO code)
9. Route of Flight
10. Remarks


00:00:00 Departure ATIS: Destination ATIS:

Clearance Limit:
Route:
Altitude: Expect in minutes
Frequency:
Transponder: (7500 Hijack / 7600 Lost Comms / 7700 Emergency)


KBZN 100556Z 14005KT 10SM CLR M12/M13 A2995 RMK AO2 SLP204 I6000 T11171128 11033 21133 58002
Time: 2022-12-10T05:56:00Z
1670654848
Winds: 140 @ 5 kts
Visibility: 10.0 sm
Clouds (AGL): CLR
Temperature: -11.7 C
Dew Point: -12.8 C
Pressure: 29.949802 in Hgbr


Notes:

Data extracted from FAA Digital Chart Supplement. Effective: 0901Z Thursday, 27 JAN 2022 to 0900z Thursday, 24 MAR 2022
Current ATIS data is provided courtisy of PilotEdge.